Weather History for Clarinda, IA

Change the Weather History Date:

Monday, December 16, 2013

  Actual Average Record
Temperature  
Mean Temperature 27 °F -  
Max Temperature 42 °F 35 °F 60 °F (2006)
Min Temperature 12 °F 17 °F 0 °F (2007)
Degree Days  
Heating Degree Days 38    
Moisture  
Dew Point 23 °F    
Average Humidity 86    
Maximum Humidity 100    
Minimum Humidity 57    
Precipitation  
Precipitation 0.00 in - - ()
Sea Level Pressure  
Sea Level Pressure 30.07 in    
Wind  
Wind Speed 5 mph (NW)    
Max Wind Speed 16 mph    
Max Gust Speed 22 mph    
Visibility 8 miles    
Events Fog    
Averages and records for this station are not official NWS values.
T = Trace of Precipitation, MM = Missing Value Source: NWS Daily Summary

Daily Weather History Graph

Daily Weather History Graph

Search for Another Location

Airport:

Trip Planner

Search our weather history database for the weather conditions in past years. The results will help you decide how hot, cold, wet, or windy it might be!

Date:

Astronomy

Dec. 16, 2013 Rise Set
Actual Time 7:37 AM CST 4:53 PM CST
Civil Twilight 7:06 AM CST 5:24 PM CST
Nautical Twilight 6:32 AM CST 5:59 PM CST
Astronomical Twilight 5:59 AM CST 6:32 PM CST
Moon 4:45 PM CST (12/16) 6:46 AM CST (12/16)
Length of Visible Light 10h 17m
Length of Day
9h 16m
Full, 100% of the Moon is Illuminated
Dec 16
Full
Dec 17
Full
Dec 25
Last Quarter
Jan 1
New
Jan 7
First Quarter

Hourly Weather History & Observations

Time (CST) Temp. Windchill Dew Point Humidity Pressure Visibility Wind Dir Wind Speed Gust Speed Precip Events Conditions
12:15 AM 21.2 °F 14.9 °F 17.6 °F 86% 30.00 in 9.0 mi NNE 4.6 mph - N/A   Clear
12:35 AM 19.4 °F 7.9 °F 17.6 °F 93% 30.01 in 8.0 mi North 10.4 mph - N/A   Clear
12:55 AM 19.4 °F 9.5 °F 17.6 °F 93% 30.01 in 9.0 mi North 8.1 mph - N/A   Clear
4:15 AM 14.0 °F 6.5 °F 12.2 °F 93% 30.02 in 10.0 mi NNE 4.6 mph - N/A   Clear
4:35 AM 14.0 °F - 12.2 °F 93% 30.02 in 10.0 mi Calm Calm - N/A   Partly Cloudy
4:55 AM 14.0 °F 6.5 °F 12.2 °F 93% 30.02 in 10.0 mi NNE 4.6 mph - N/A   Partly Cloudy
5:15 AM 12.2 °F 6.1 °F 10.4 °F 92% 30.02 in 10.0 mi North 3.5 mph - N/A   Mostly Cloudy
5:35 AM 12.2 °F 6.1 °F 10.4 °F 92% 30.02 in 8.0 mi NE 3.5 mph - N/A   Mostly Cloudy
5:55 AM 12.2 °F - 10.4 °F 92% 30.03 in 10.0 mi Calm Calm - N/A   Mostly Cloudy
6:15 AM 14.0 °F - 12.2 °F 93% 30.03 in 9.0 mi Calm Calm - N/A   Overcast
6:35 AM 14.0 °F - 12.2 °F 93% 30.04 in 9.0 mi Calm Calm - N/A   Overcast
6:55 AM 14.0 °F - 12.2 °F 93% 30.04 in - Calm Calm - N/A   Overcast
7:15 AM 14.0 °F - 12.2 °F 93% 30.03 in 8.0 mi Calm Calm - N/A   Overcast
7:35 AM 14.0 °F - 12.2 °F 93% 30.03 in 8.0 mi Calm Calm - N/A   Overcast
7:55 AM 15.8 °F - 14.0 °F 93% 30.03 in 6.0 mi Calm Calm - N/A   Overcast
8:15 AM 17.6 °F 12.3 °F 17.6 °F 100% 30.02 in 4.0 mi South 3.5 mph - N/A   Overcast
8:35 AM 19.4 °F 12.8 °F 19.4 °F 100% 30.03 in 0.2 mi SSE 4.6 mph - N/A Fog Light Freezing Fog
8:55 AM 21.2 °F 13.6 °F 21.2 °F 100% 30.02 in 0.2 mi South 5.8 mph - N/A Fog Light Freezing Fog
9:15 AM 21.2 °F 12.6 °F 21.2 °F 100% 30.03 in 0.2 mi South 6.9 mph - N/A Fog Light Freezing Fog
9:35 AM 23.0 °F - 21.2 °F 93% 30.05 in 0.2 mi Calm Calm - N/A Fog Light Freezing Fog
9:55 AM 23.0 °F 15.8 °F 23.0 °F 100% 30.04 in 0.2 mi SSE 5.8 mph - N/A Fog Light Freezing Fog
10:15 AM 24.8 °F 16.9 °F 23.0 °F 93% 30.04 in 0.8 mi South 6.9 mph - N/A   Overcast
10:35 AM 24.8 °F 17.9 °F 24.8 °F 100% 30.05 in 0.8 mi South 5.8 mph - N/A   Overcast
10:55 AM 24.8 °F 17.9 °F 24.8 °F 100% 30.05 in 0.8 mi South 5.8 mph - N/A   Overcast
11:15 AM 26.6 °F 18.2 °F 24.8 °F 93% 30.04 in 1.0 mi SSW 8.1 mph - N/A   Overcast
11:35 AM 26.6 °F 18.2 °F 26.6 °F 100% 30.04 in 1.5 mi SSW 8.1 mph - N/A   Overcast
11:55 AM 26.6 °F 20.0 °F 26.6 °F 100% 30.04 in 2.5 mi SW 5.8 mph - N/A   Overcast
12:15 PM 28.4 °F 23.3 °F 28.4 °F 100% 30.02 in 3.0 mi South 4.6 mph - N/A   Overcast
12:35 PM 30.2 °F - 30.2 °F 100% 30.02 in 5.0 mi Calm Calm - N/A   Scattered Clouds
12:55 PM 32.0 °F - 28.4 °F 87% 30.03 in 6.0 mi Calm Calm - N/A   Clear
1:15 PM 35.6 °F 30.7 °F 30.2 °F 81% 30.02 in 8.0 mi WSW 5.8 mph - N/A   Clear
1:35 PM 37.4 °F 32.1 °F 28.4 °F 70% 30.01 in 9.0 mi WSW 6.9 mph - N/A   Clear
1:55 PM 37.4 °F 33.8 °F 30.2 °F 75% 30.02 in 9.0 mi WSW 4.6 mph - N/A   Clear
2:15 PM 39.2 °F 34.2 °F 30.2 °F 70% 30.02 in 9.0 mi West 6.9 mph 12.7 mph N/A   Clear
2:35 PM 41.0 °F 35.8 °F 28.4 °F 61% 30.02 in 10.0 mi NW 8.1 mph 16.1 mph N/A   Clear
2:55 PM 42.8 °F 38.0 °F 30.2 °F 61% 30.03 in 10.0 mi NW 8.1 mph 15.0 mph N/A   Clear
3:15 PM 42.8 °F 36.2 °F 28.4 °F 57% 30.04 in 10.0 mi North 12.7 mph - N/A   Clear
3:35 PM 42.8 °F 35.1 °F 28.4 °F 57% 30.06 in 10.0 mi NNW 16.1 mph 21.9 mph N/A   Clear
3:55 PM 41.0 °F 35.2 °F 30.2 °F 65% 30.06 in 10.0 mi NNW 9.2 mph 16.1 mph N/A   Clear
4:15 PM 41.0 °F 34.3 °F 30.2 °F 65% 30.07 in 10.0 mi NNW 11.5 mph 17.3 mph N/A   Clear
4:35 PM 39.2 °F 32.5 °F 30.2 °F 70% 30.08 in 10.0 mi NNW 10.4 mph 17.3 mph N/A   Clear
4:55 PM 37.4 °F 31.4 °F 30.2 °F 75% 30.09 in 10.0 mi North 8.1 mph - N/A   Clear
5:15 PM 37.4 °F 30.8 °F 30.2 °F 75% 30.09 in 10.0 mi NNW 9.2 mph - N/A   Clear
5:35 PM 37.4 °F 30.8 °F 28.4 °F 70% 30.10 in 10.0 mi North 9.2 mph - N/A   Clear
5:55 PM 35.6 °F 28.0 °F 28.4 °F 75% 30.10 in 10.0 mi NNW 10.4 mph - N/A   Scattered Clouds
6:15 PM 35.6 °F 29.2 °F 28.4 °F 75% 30.11 in 10.0 mi North 8.1 mph - N/A   Partly Cloudy
6:35 PM 33.8 °F 28.6 °F 28.4 °F 81% 30.11 in 10.0 mi NNE 5.8 mph - N/A   Clear
6:55 PM 32.0 °F 25.6 °F 28.4 °F 87% 30.12 in 10.0 mi North 6.9 mph - N/A   Mostly Cloudy
7:15 PM 32.0 °F 25.6 °F 28.4 °F 87% 30.12 in 10.0 mi NNW 6.9 mph - N/A   Overcast
7:35 PM 33.8 °F 28.6 °F 26.6 °F 75% 30.13 in 10.0 mi North 5.8 mph - N/A   Mostly Cloudy
7:55 PM 32.0 °F 27.5 °F 26.6 °F 80% 30.13 in 10.0 mi NNE 4.6 mph - N/A   Mostly Cloudy
8:15 PM 32.0 °F 26.4 °F 26.6 °F 80% 30.13 in 10.0 mi North 5.8 mph - N/A   Mostly Cloudy
8:35 PM 32.0 °F 27.5 °F 26.6 °F 80% 30.14 in 10.0 mi NNW 4.6 mph - N/A   Mostly Cloudy
8:55 PM 32.0 °F 27.5 °F 26.6 °F 80% 30.14 in 10.0 mi NNW 4.6 mph - N/A   Partly Cloudy
9:15 PM 28.4 °F - 24.8 °F 86% 30.15 in 10.0 mi Calm Calm - N/A   Mostly Cloudy
9:35 PM 28.4 °F - 24.8 °F 86% 30.15 in 10.0 mi Calm Calm - N/A   Mostly Cloudy
9:55 PM 28.4 °F - 26.6 °F 93% 30.15 in 10.0 mi Calm Calm - N/A   Partly Cloudy
10:15 PM 26.6 °F 21.2 °F 24.8 °F 93% 30.15 in 10.0 mi SSW 4.6 mph - N/A   Scattered Clouds
10:35 PM 26.6 °F 22.6 °F 24.8 °F 93% 30.16 in 10.0 mi South 3.5 mph - N/A   Overcast
10:55 PM 28.4 °F - 24.8 °F 86% 30.17 in 10.0 mi Calm Calm - N/A   Overcast
11:15 PM 28.4 °F 24.6 °F 26.6 °F 93% 30.17 in 10.0 mi SW 3.5 mph - N/A   Overcast
11:55 PM 26.6 °F - 26.6 °F 100% 30.18 in 10.0 mi Calm Calm - N/A   Scattered Clouds